TimeMDT,TemperatureF,Dew PointF,Humidity,Sea Level PressureIn,VisibilityMPH,Wind Direction,Wind SpeedMPH,Gust SpeedMPH,PrecipitationIn,Events,Conditions,WindDirDegrees,DateUTC
12:54 AM,48.9,41.0,74,29.86,10.0,NNE,4.6,-,N/A,,Clear,30,2013-10-02 06:54:00
1:54 AM,48.0,41.0,77,29.85,10.0,NNE,6.9,-,N/A,,Clear,20,2013-10-02 07:54:00
2:54 AM,48.0,42.1,80,29.83,10.0,North,6.9,-,N/A,,Partly Cloudy,10,2013-10-02 08:54:00
3:54 AM,48.0,41.0,77,29.82,10.0,NNE,5.8,-,N/A,,Scattered Clouds,20,2013-10-02 09:54:00
4:54 AM,50.0,39.0,66,29.81,10.0,North,6.9,-,N/A,,Partly Cloudy,360,2013-10-02 10:54:00
5:54 AM,50.0,37.0,61,29.83,10.0,NW,4.6,-,N/A,,Clear,310,2013-10-02 11:54:00
6:54 AM,52.0,35.1,53,29.87,10.0,NW,3.5,-,N/A,,Partly Cloudy,320,2013-10-02 12:54:00
7:54 AM,53.1,37.9,57,29.88,10.0,West,5.8,-,N/A,,Scattered Clouds,280,2013-10-02 13:54:00
8:54 AM,66.0,36.0,33,29.84,10.0,NW,6.9,-,N/A,,Scattered Clouds,320,2013-10-02 14:54:00
9:54 AM,73.0,30.0,20,29.84,10.0,NNW,11.5,-,N/A,,Partly Cloudy,330,2013-10-02 15:54:00
10:54 AM,75.0,28.9,18,29.81,10.0,NNE,5.8,-,N/A,,Scattered Clouds,30,2013-10-02 16:54:00
11:54 AM,77.0,28.9,17,29.82,10.0,NNE,10.4,-,N/A,,Scattered Clouds,30,2013-10-02 17:54:00
12:54 PM,77.0,30.0,18,29.81,10.0,East,10.4,-,N/A,,Scattered Clouds,90,2013-10-02 18:54:00
1:54 PM,75.0,28.9,18,29.80,10.0,East,9.2,-,N/A,,Scattered Clouds,100,2013-10-02 19:54:00
2:54 PM,75.9,30.0,19,29.78,10.0,East,16.1,-,N/A,,Scattered Clouds,100,2013-10-02 20:54:00
3:54 PM,75.9,30.0,19,29.76,10.0,ENE,15.0,19.6,N/A,,Scattered Clouds,70,2013-10-02 21:54:00
4:54 PM,75.0,32.0,21,29.75,10.0,ENE,10.4,-,N/A,,Scattered Clouds,70,2013-10-02 22:54:00
5:54 PM,73.0,33.1,23,29.75,10.0,East,4.6,-,N/A,,Scattered Clouds,80,2013-10-02 23:54:00
6:54 PM,68.0,37.0,32,29.77,10.0,East,5.8,-,N/A,,Scattered Clouds,80,2013-10-03 00:54:00
7:54 PM,61.0,39.9,46,29.81,10.0,NE,8.1,-,N/A,,Scattered Clouds,50,2013-10-03 01:54:00
8:54 PM,60.1,41.0,49,29.77,10.0,NW,5.8,-,N/A,,Scattered Clouds,310,2013-10-03 02:54:00
9:54 PM,55.9,42.1,60,29.76,10.0,NNW,4.6,-,N/A,,Partly Cloudy,340,2013-10-03 03:54:00
10:54 PM,53.1,42.1,66,29.75,10.0,North,9.2,-,N/A,,Clear,360,2013-10-03 04:54:00
11:54 PM,55.0,43.0,64,29.71,10.0,North,8.1,-,N/A,,Clear,350,2013-10-03 05:54:00